Date String (YYYY-MM-DD hh:mm:ss) UTC,Instrument flags,Ambient pressure (hPa),Sample flow (lpm),Bypass flow (lpm),Sample temperature (°C),Ambient temperature (°C),ASC tube jacket temperature (°C),LED temperature (°C),Box temperature (°C),Sample RH (%),Span deviation,Mass concentration (μg/m³),Mass concentration (μg/m³),Mass concentration (μg/m³)
DateTimeUTC,F1_M11,P_M11,Q1_M11,Q2_M11,T1_M11,T2_M11,T3_M11,T4_M11,T5_M11,U1_M11,ZSPAN_M11,X0_M11,X2_M11,X1_M11
2021-11-30 19:00:00,,0829.5,5.02,0.00,27.3,26.6,00.0,36.2,29.0,13.4,0000.0,0013.83,0003.73,0002.44
2021-11-30 19:01:00,,0829.5,4.99,0.00,27.3,26.6,00.0,36.2,29.1,13.4,0000.0,0014.02,0003.81,0002.44
2021-11-30 19:02:00,,0829.5,5.01,0.00,27.3,26.6,00.0,36.2,29.1,13.3,0000.0,0013.55,0003.82,0002.44
2021-11-30 19:03:00,,0829.5,4.99,0.00,27.3,26.6,00.0,36.2,29.1,13.3,0000.0,0013.40,0003.90,0002.45
2021-11-30 19:04:00,,0829.5,5.00,0.00,27.3,26.6,00.0,36.2,29.1,13.3,0000.0,0012.79,0003.87,0002.46
2021-11-30 19:05:00,,0829.3,5.00,0.00,27.3,26.7,00.0,36.2,29.1,13.3,0000.0,0012.29,0003.87,0002.46
2021-11-30 19:06:00,,0829.2,5.00,0.00,27.3,26.7,00.0,36.2,29.1,13.3,0000.0,0012.66,0003.88,0002.45
2021-11-30 19:07:00,,0829.2,5.01,0.00,27.3,26.7,00.0,36.2,29.1,13.2,0000.0,0012.35,0003.89,0002.48
2021-11-30 19:08:00,,0829.3,4.99,0.00,27.3,26.7,00.0,36.3,29.1,13.2,0000.0,0011.61,0003.88,0002.51
2021-11-30 19:09:00,,0829.2,5.00,0.00,27.3,26.7,00.0,36.3,29.1,13.1,0000.0,0011.67,0003.88,0002.54
2021-11-30 19:10:00,,0829.2,5.01,0.00,27.3,26.7,00.0,36.3,29.1,13.1,0000.0,0011.39,0003.88,0002.57
2021-11-30 19:11:00,,0829.2,5.00,0.00,27.3,26.7,00.0,36.3,29.1,13.1,0000.0,0010.53,0003.86,0002.62
2021-11-30 19:12:00,,0829.2,5.00,0.00,27.3,26.7,00.0,36.3,29.1,13.1,0000.0,0009.81,0003.85,0002.67
2021-11-30 19:13:00,,0829.2,5.01,0.00,27.4,26.7,00.0,36.3,29.1,13.1,0000.0,0009.68,0003.88,0002.72
2021-11-30 19:14:00,,0829.1,4.98,0.00,27.4,26.7,00.0,36.3,29.1,13.1,0000.0,0009.43,0003.85,0002.76
2021-11-30 19:15:00,,0829.1,5.02,0.00,27.4,26.7,00.0,36.3,29.1,13.1,0000.0,0009.73,0003.86,0002.81
2021-11-30 19:16:00,,0829.0,4.98,0.00,27.4,26.7,00.0,36.3,29.1,13.1,0000.0,0010.14,0003.91,0002.87
2021-11-30 19:17:00,,0829.0,5.02,0.00,27.4,26.7,00.0,36.3,29.2,13.2,0000.0,0009.80,0003.88,0002.92
2021-11-30 19:18:00,,0829.0,4.98,0.00,27.4,26.7,00.0,36.3,29.1,13.2,0000.0,0009.96,0003.91,0002.96
2021-11-30 19:19:00,,0828.9,5.01,0.00,27.4,26.6,00.0,36.3,29.1,13.2,0000.0,0010.30,0003.94,0002.99
2021-11-30 19:20:00,,0828.8,5.00,0.00,27.4,26.7,00.0,36.3,29.1,13.2,0000.0,0012.22,0003.94,0003.01
2021-11-30 19:21:00,,0828.9,5.00,0.00,27.4,26.6,00.0,36.3,29.1,13.2,0000.0,0013.14,0003.96,0003.03
2021-11-30 19:22:00,,0829.4,4.99,0.00,27.3,26.6,00.0,36.3,29.1,13.2,0000.0,0013.10,0003.95,0003.04
2021-11-30 19:23:00,,0828.8,4.99,0.00,27.3,26.6,00.0,36.3,29.1,13.2,0000.0,0014.22,0003.94,0003.06
2021-11-30 19:24:00,,0829.2,5.01,0.00,27.4,26.6,00.0,36.3,29.1,13.3,0000.0,0015.24,0003.96,0003.09
2021-11-30 19:25:00,,0828.9,4.99,0.00,27.4,26.7,00.0,36.3,29.1,13.2,0000.0,0015.18,0003.97,0003.12
2021-11-30 19:26:00,,0828.9,5.00,0.00,27.4,26.7,00.0,36.3,29.1,13.2,0000.0,0015.49,0004.01,0003.14
2021-11-30 19:27:00,,0828.9,5.00,0.00,27.4,26.7,00.0,36.3,29.1,13.2,0000.0,0015.34,0004.00,0003.14
2021-11-30 19:28:00,,0829.1,5.00,0.00,27.4,26.7,00.0,36.3,29.2,13.1,0000.0,0015.39,0004.04,0003.16
2021-11-30 19:29:00,,0829.0,4.99,0.00,27.4,26.7,00.0,36.3,29.2,13.2,0000.0,0016.11,0004.07,0003.17
2021-11-30 19:30:00,,0829.0,5.01,0.00,27.4,26.7,00.0,36.3,29.1,13.2,0000.0,0016.21,0004.09,0003.18
2021-11-30 19:31:00,,0828.7,4.99,0.00,27.4,26.7,00.0,36.3,29.1,13.2,0000.0,0016.26,0004.10,0003.20
2021-11-30 19:32:00,,0828.5,5.00,0.00,27.4,26.7,00.0,36.4,29.2,13.2,0000.0,0017.23,0004.15,0003.23
2021-11-30 19:33:00,,0828.4,5.01,0.00,27.4,26.7,00.0,36.4,29.2,13.2,0000.0,0018.57,0004.18,0003.25
2021-11-30 19:34:00,,0828.4,5.00,0.00,27.4,26.7,00.0,36.4,29.2,13.2,0000.0,0017.86,0004.18,0003.25
2021-11-30 19:35:00,,0828.3,4.99,0.00,27.4,26.7,00.0,36.4,29.2,13.2,0000.0,0016.80,0004.17,0003.26
2021-11-30 19:36:00,,0828.4,4.99,0.00,27.4,26.6,00.0,36.4,29.2,13.1,0000.0,0017.12,0004.17,0003.27
2021-11-30 19:37:00,,0828.4,5.02,0.00,27.4,26.6,00.0,36.4,29.2,13.1,0000.0,0017.50,0004.16,0003.28
2021-11-30 19:38:00,,0828.4,4.99,0.00,27.4,26.6,00.0,36.4,29.1,13.1,0000.0,0017.44,0004.19,0003.31
2021-11-30 19:39:00,,0828.3,5.01,0.00,27.4,26.7,00.0,36.4,29.1,13.1,0000.0,0017.69,0004.25,0003.33
2021-11-30 19:40:00,,0828.3,4.99,0.00,27.4,26.7,00.0,36.4,29.1,13.1,0000.0,0017.41,0004.25,0003.35
2021-11-30 19:41:00,,0828.3,5.00,0.00,27.4,26.7,00.0,36.4,29.2,13.2,0000.0,0017.17,0004.25,0003.36
2021-11-30 19:42:00,,0828.4,5.00,0.00,27.4,26.7,00.0,36.4,29.2,13.1,0000.0,0015.43,0004.26,0003.36
2021-11-30 19:43:00,,0828.3,4.99,0.00,27.4,26.7,00.0,36.4,29.2,13.0,0000.0,0013.93,0004.24,0003.36
2021-11-30 19:44:00,,0828.4,5.01,0.00,27.4,26.8,00.0,36.4,29.2,13.2,0000.0,0012.84,0004.25,0003.39
2021-11-30 19:45:00,,0828.4,5.00,0.00,27.4,26.8,00.0,36.4,29.2,13.1,0000.0,0012.57,0004.29,0003.42
2021-11-30 19:46:00,,0828.4,5.00,0.00,27.5,26.8,00.0,36.4,29.3,13.1,0000.0,0012.66,0004.33,0003.43
2021-11-30 19:47:00,,0828.3,5.01,0.00,27.5,26.8,00.0,36.4,29.3,13.0,0000.0,0012.48,0004.38,0003.45
2021-11-30 19:48:00,,0828.3,5.00,0.00,27.5,26.9,00.0,36.4,29.3,13.0,0000.0,0011.34,0004.40,0003.46
2021-11-30 19:49:00,,0828.3,5.00,0.00,27.5,26.9,00.0,36.4,29.3,13.0,0000.0,0011.12,0004.41,0003.49
2021-11-30 19:50:00,,0828.3,5.00,0.00,27.6,26.9,00.0,36.4,29.4,13.0,0000.0,0011.36,0004.35,0003.50
2021-11-30 19:51:00,,0828.2,4.99,0.00,27.6,27.0,00.0,36.4,29.4,13.0,0000.0,0010.59,0004.33,0003.51
2021-11-30 19:52:00,,0828.3,4.99,0.00,27.6,27.0,00.0,36.5,29.4,12.9,0000.0,0010.81,0004.37,0003.54
2021-11-30 19:53:00,,0828.2,5.00,0.00,27.6,27.0,00.0,36.5,29.4,12.7,0000.0,0010.87,0004.37,0003.58
2021-11-30 19:54:00,,0828.2,5.01,0.00,27.6,27.0,00.0,36.5,29.4,12.6,0000.0,0010.34,0004.38,0003.61
2021-11-30 19:55:00,,0828.3,5.00,0.00,27.7,27.0,00.0,36.5,29.5,12.6,0000.0,0010.36,0004.40,0003.62
2021-11-30 19:56:00,,0828.2,5.02,0.00,27.7,27.0,00.0,36.5,29.5,12.5,0000.0,0010.44,0004.39,0003.66
2021-11-30 19:57:00,,0828.3,5.00,0.00,27.7,27.1,00.0,36.5,29.5,12.6,0000.0,0011.38,0004.45,0003.69
2021-11-30 19:58:00,,0828.2,4.99,0.00,27.7,27.1,00.0,36.6,29.5,12.5,0000.0,0012.19,0004.50,0003.73
2021-11-30 19:59:00,,0828.2,5.00,0.00,27.7,27.1,00.0,36.6,29.6,12.5,0000.0,0012.66,0004.54,0003.76
